Weather in Padua

Italy     45°24′33″N   11°52′21″E
temp.,
°C
wind,
m/s
gust,
m/s
humid.,
%
clouds,
%
prec.,
mm/h
press.,
hPa
HPBL,
m
30 june, thu
thu3023:00+22ne11810 0.0 101111
02:00+21nne11850 0.0 101112
05:00+20ne11900 0.0 101113
08:00+23ne23760 0.0 1012255
11:00+28ene21590 0.0 1012877
14:00+31ene124810 0.0 10111682
17:00+33ne34412 0.0 10101790
20:00+27ese236835 0.7 101071
1 july, fri
fri123:00+23e22790 0.1 101217
02:00+21nne22900 0.1 101229
05:00+20ne34940 0.0 101266
08:00+23ene358050 0.0 1012264
11:00+28ene33615 0.0 10131129
14:00+31ene43490 0.0 10121739
17:00+31ene43462 0.0 1012937
20:00+27ene24614 0.5 101281
2 july, sat
sat223:00+21n22890 0.6 101521
02:00+20n22840 0.6 101626
05:00+19wnw11810 0.0 101713
08:00+23nne11610 0.0 1019174
11:00+28e22480 0.0 1019772
14:00+31ene32390 0.0 10191145
17:00+32ene33380 0.0 10171243
20:00+28e235973 0.0 101754
3 july, sun
sun323:00+23nne11680 0.0 101811
02:00+22n11740 0.0 101811
05:00+21nne11775 0.0 101812
08:00+25n11630 0.0 1018144
11:00+31sw12450 0.0 1018932
14:00+34se11360 0.0 10171509
17:00+35e22335 0.0 10161652
20:00+29ene35551 0.0 1016106
4 july, mon
mon423:00+25ene2267100 0.0 101713
02:00+24n116959 0.0 101714
05:00+22nw226786 0.0 101722
08:00+26nnw23555 0.0 1017154
11:00+33w11375 0.0 1017674
14:00+36e22260 0.0 10161523
17:00+38e33210 0.0 10142429
20:00+30ese46373 0.0 1013108